Lid_Strength_Index
2 2 1 2 2 2 2 2 2 2 2 2 2 2 2 2 3 4 6 3 2 -2 -1 4 4 5 5 7 7 8 12 11 10 10 9 6 8 6 4 5 4 4 4 3 2
2 2 1 2 2 2 2 2 2 2 2 2 2 2 3 3 5 6 1 -2 -3 -3 5 5 7 5 7 9 9 10 12 10 6 6 7 7 7 7 6 5 6 5 3 3 2
2 2 2 2 2 2 2 2 2 2 2 2 2 2 3 3 5 4 -3 -3 -3 -2 6 4 6 6 9 9 9 10 10 7 8 7 7 7 7 5 6 7 6 6 5 3 3
2 2 2 2 2 2 2 2 2 2 2 2 2 2 2 4 10 5 -2 -3 -3 4 7 7 7 9 11 11 9 11 8 7 8 6 8 8 6 6 5 5 4 4 3 3 3
3 3 2 2 2 2 3 2 2 2 2 2 1 2 5 6 6 1 -2 -2 2 5 7 6 8 9 11 10 9 10 8 7 7 7 7 6 6 6 7 4 3 3 3 4 4
3 3 3 3 3 3 3 3 3 3 2 1 2 2 5 8 4 1 3 4 6 7 6 5 7 7 9 9 11 9 8 8 7 8 7 7 7 6 6 4 4 4 4 4 4
3 3 3 3 3 3 3 3 3 3 2 0 2 2 4 5 4 4 5 6 5 5 5 4 5 9 8 9 8 8 10 8 7 7 8 7 8 7 6 4 5 4 4 4 4
3 3 3 3 3 3 3 3 3 2 1 1 1 3 6 2 4 5 4 5 4 4 5 5 6 8 9 8 7 10 11 12 8 7 7 8 11 7 5 5 5 5 5 5 5
3 3 3 3 3 3 3 4 3 2 0 1 3 4 6 2 3 4 4 5 4 5 5 3 6 8 7 11 12 10 13 11 9 7 8 8 10 7 6 5 5 5 4 5 5
3 3 3 3 3 3 4 3 2 1 1 1 1 5 4 6 3 3 3 3 5 6 7 8 9 10 10 12 15 12 13 12 11 9 8 9 9 8 6 5 5 6 5 4 4
3 3 3 4 4 4 5 5 5 5 5 5 5 4 3 2 2 3 3 4 5 7 11 9 12 13 11 9 9 9 11 11 10 8 10 11 10 9 9 8 8 6 6 5 4
3 3 3 3 4 4 5 5 5 5 7 4 4 3 3 2 4 4 4 7 8 11 10 11 12 9 7 8 8 9 11 11 10 9 11 11 11 10 8 9 9 8 7 7 4
4 4 3 3 4 4 3 3 2 3 8 5 3 4 5 4 5 5 5 6 9 10 11 11 9 7 7 9 9 11 11 10 10 9 9 10 11 10 9 8 8 7 7 6 6
4 4 3 3 4 4 4 2 2 3 10 7 6 5 5 5 6 3 4 6 8 10 10 10 8 7 9 9 9 12 8 9 9 11 14 10 15 11 10 9 9 8 7 6 5
4 4 4 4 6 4 2 2 2 3 16 7 6 4 5 7 6 5 3 5 7 7 8 9 8 9 9 8 8 10 8 8 9 11 12 11 14 12 10 10 9 7 6 5 4
4 4 4 3 5 3 1 1 3 11 15 7 7 8 8 7 6 5 5 5 5 8 7 8 6 7 8 7 7 7 8 9 10 12 15 13 13 13 11 8 7 6 6 5 4
4 4 5 4 5 2 1 4 12 14 7 8 8 7 7 8 7 6 7 8 10 12 11 8 8 7 6 9 8 9 11 15 16 16 16 11 13 12 8 7 6 6 6 5 4
5 5 4 3 2 2 3 8 15 9 8 6 6 7 8 7 7 7 8 9 7 8 11 12 12 9 7 9 10 10 11 14 17 17 14 11 13 11 7 6 6 5 5 5 5
6 4 3 1 2 2 6 13 12 8 7 7 7 8 9 7 7 8 8 8 7 8 11 12 11 7 7 7 8 10 12 10 13 13 15 13 10 8 7 7 6 6 5 5 6
6 5 3 1 0 3 8 11 9 6 6 6 9 8 10 9 9 9 9 7 7 6 7 9 12 8 7 7 8 10 8 13 13 17 18 14 13 13 10 9 7 7 7 6 5
6 5 2 0 1 6 11 9 7 5 5 7 8 9 9 9 8 9 8 7 6 6 7 9 10 10 8 9 10 10 12 11 12 12 16 17 16 10 10 8 8 7 6 6 6
5 8 2 1 7 7 9 7 6 6 4 5 6 7 8 8 9 8 9 8 5 6 9 9 11 13 11 7 7 8 10 11 14 15 13 14 15 8 8 8 7 7 6 6 5
8 6 3 2 10 9 7 7 6 6 6 6 6 6 6 9 11 9 8 6 6 7 9 9 12 14 12 10 8 10 9 9 10 12 14 16 14 8 7 7 6 7 7 7 7
7 9 5 4 5 8 9 8 8 6 6 6 6 6 8 9 8 10 8 6 5 6 4 7 11 13 15 13 10 11 9 9 11 14 14 13 13 10 9 8 7 7 7 8 9
6 7 6 9 8 7 7 7 8 8 6 5 7 7 8 11 10 10 8 7 6 6 7 9 13 12 10 9 9 9 9 10 12 11 13 12 12 10 10 10 10 9 8 8 7
8 7 5 7 7 7 8 8 8 7 6 7 8 7 7 10 10 11 9 9 10 8 9 9 13 11 12 9 9 10 9 9 10 10 12 12 12 9 9 9 9 9 8 8 7
6 5 6 8 7 8 8 7 7 6 5 5 6 8 9 8 6 8 8 8 9 10 10 11 12 13 15 10 10 13 10 9 9 9 10 12 10 9 9 8 9 8 7 7 6